Date,TemperatureHighF,TemperatureAvgF,TemperatureLowF,DewpointHighF,DewpointAvgF,DewpointLowF,HumidityHigh,HumidityAvg,HumidityLow,PressureMaxIn,PressureMinIn,WindSpeedMaxMPH,WindSpeedAvgMPH,GustSpeedMaxMPH,PrecipitationSumIn
2013-1-1,43,39,35,40,33,18,94,82,44,30.15,29.92,15,4,16,0.09
2013-1-2,35,32,28,34,28,22,94,83,63,30.22,29.97,15,2,15,0.00
2013-1-3,37,31,28,25,23,20,84,73,52,30.28,30.19,14,3,15,0.00
2013-1-4,35,29,23,23,21,17,80,70,59,30.37,30.25,22,7,26,0.00
2013-1-5,46,34,25,32,24,19,88,67,39,30.45,30.24,18,3,19,0.02
2013-1-6,42,37,31,32,30,28,92,74,64,30.25,30.08,17,4,18,0.02
2013-1-7,47,34,24,30,25,21,89,70,44,30.47,30.21,17,2,24,0.00
2013-1-8,52,33,20,33,24,18,94,75,31,30.50,30.40,11,1,13,0.00
2013-1-9,54,44,26,49,39,23,95,83,48,30.48,30.40,12,2,13,0.00
2013-1-10,58,45,31,39,32,28,93,65,35,30.58,30.42,8,1,11,0.00
2013-1-11,47,44,40,46,40,34,98,87,65,30.42,30.14,9,1,10,0.06
2013-1-12,70,53,41,61,50,40,99,91,70,30.19,30.07,7,1,8,0.01
2013-1-13,70,61,52,57,55,50,98,83,59,30.07,29.96,11,2,13,0.00
2013-1-14,61,49,39,56,48,38,97,95,80,30.23,29.99,10,2,11,0.84
2013-1-15,43,40,37,42,40,36,98,97,95,30.26,30.08,6,1,7,1.49
2013-1-16,50,42,36,48,40,35,98,95,90,30.09,29.94,10,2,12,0.52
2013-1-17,42,36,32,40,34,31,97,93,77,30.14,30.01,11,1,11,0.62
2013-1-18,34,28,18,27,23,16,94,82,68,30.55,30.22,12,3,28,0.29
2013-1-19,46,30,16,33,24,15,95,80,54,30.50,30.16,11,2,12,0.27
2013-1-20,48,40,32,32,26,18,76,60,37,30.16,30.03,24,7,27,0.02
2013-1-21,45,34,24,24,18,7,79,53,32,30.10,29.90,32,7,37,0.00
2013-1-22,24,18,13,8,0,-4,55,45,34,30.32,30.00,35,8,35,0.00
2013-1-23,26,20,13,20,7,-2,77,57,34,30.39,30.07,24,6,25,0.00
2013-1-24,35,22,12,24,10,3,78,60,42,30.56,30.02,35,5,42,0.00
2013-1-25,33,19,12,30,13,4,95,79,55,30.53,30.10,25,3,29,0.00
2013-1-26,34,29,24,29,23,18,83,76,68,30.45,30.10,24,4,29,0.10
2013-1-27,36,26,13,26,20,11,92,79,63,30.61,30.45,7,1,9,0.00
2013-1-28,61,44,31,48,39,26,96,83,59,30.48,30.19,21,4,22,0.13
2013-1-29,68,55,46,52,48,44,95,80,56,30.20,29.97,15,2,16,0.00
2013-1-30,65,58,47,59,55,43,98,89,81,29.97,29.33,33,7,35,1.90
2013-1-31,47,32,29,43,24,17,89,70,57,29.93,29.34,39,13,41,0.02